{"data":{"norad_id":59761,"intl_designator":"2024-091J","name":"STARLINK-11117 [DTC]","alt_names":[],"object_type":"PAYLOAD","status":"ACTIVE","operator":null,"country":"US","launch_date":"2024-05-14","launch_site_code":"AFWTR","launch_vehicle":null,"mission":null,"orbit_class":"UNKNOWN","rcs_meters":null,"size_class":null,"mass_kg":null,"dimensions":null,"purposes":["comms"],"wikipedia_slug":null,"has_3d_model":false,"image_url":null,"decayed_at":null,"tle_current":{"epoch":"2026-05-25T03:32:59.271072Z","epoch_age_seconds":72822,"freshness":"FRESH","line1":"1 59761U 24091J   26145.14790823  .00005682  00000+0  51702-4 0  9995","line2":"2 59761  53.1582 189.2234 0001099 100.7847 259.3295 15.69719082117528","mean_motion":15.69719082,"eccentricity":0.0001099,"inclination_deg":53.1582,"raan_deg":189.2234,"arg_perigee_deg":100.7847,"mean_anomaly_deg":259.3295,"bstar":5.1702e-5,"rev_number":11752,"period_min":91.736159451236,"perigee_km":358.96027296752,"apogee_km":360.44124970746,"semimajor_km":6737.8377613375,"source":"CELESTRAK","updated_at":"2026-05-25T13:38:19.057241Z"}}}